LiveATC.Net - Listen to live air traffic control over the Internet!


ICAO: EIKN  IATA: NOC   Airport: Ireland West Airport Knock
City: Charlestown
Country: Ireland   Continent: Europe
EIKN METAR Weather: EIKN 161330Z 24011KT 210V280 9999 -SHRA FEW005 BKN013 SCT018CB 04/03 Q0993 NOSIG
EIKN Flight Activity (FlightAware)

EIKN Gnd/Twr/App
Feed Status: UP   Listeners: 2
Listen in your browser - HTML5 player (in browser, HTML5)
Click here to listen with your own player (launches your MP3 player)
Archive Access: EIKN Gnd/Twr/App
FacilityFrequency
Connaught Ground121.900
Connaught Tower130.700
Shannon Low Level119.075
Special Note: Sponsored by CAC

NOTICE

Unauthorized use prohibited. See LiveATC.net Terms of Service


Airport/ARTCC Code
Frequency Search
(e.g., 124.400, 128.75)
Site-wide search
 


Browse Feeds
Top 50 Feeds
Coverage Map
Bad Weather Areas

LiveATC FAQ
Offer LiveATC feed
Contact LiveATC.net
Press Inquiries

LiveATC on iPhone
LiveATC on Android

Windows Phone
Windows 8/10

LiveATC Mobile
(Mobile browser)

ATC Audio Archives
Interesting Recordings

LiveATC Forums


Home Page
About LiveATC.net
Make a Donation
Terms of Use
Privacy Policy

Canadian Air Freqs

AIRMETs/SIGMETs

FAA Airport Status
Nat'l Airspace Status
Arrival Demand Charts


Server Software By:
Icecast.org
Liquidsoap